When you browse on this site, cookies collect data to enhance your experience and personalize the content and advertising you see.
Visit our Privacy Policy to learn more. By continuing to use the site, you agree to this use of cookies and data.
  • In France
  • List of Countries
  • For 7 days
  • Water Temperature
  • Weather Map
  • Weather Widgets
  • user-avatar
    Login

    Hourly Weather Wilmette

    Today, 2 June, Tuesday

    Time Temperature Precipitation Wind Pressure Humidity
    00:00 +21°C° 0 mm 7 mps 745 mmHg 70%
    01:00 +21°C° 0.1 mm 7 mps 744 mmHg 72%
    02:00 +21°C° 0.1 mm 7 mps 744 mmHg 74%
    03:00 +21°C° 0.1 mm 7 mps 743 mmHg 76%
    04:00 +21°C° 0.1 mm 7 mps 743 mmHg 78%
    05:00 +21°C° 0.1 mm 7 mps 743 mmHg 80%
    06:00 +21°C° 0.1 mm 6 mps 743 mmHg 82%
    07:00 +22°C° 0.1 mm 6 mps 743 mmHg 80%
    08:00 +23°C° 0.1 mm 5 mps 743 mmHg 78%
    09:00 +25°C° 0.1 mm 5 mps 743 mmHg 76%
    10:00 +26°C° 0 mm 5 mps 743 mmHg 73%
    11:00 +27°C° 0 mm 5 mps 743 mmHg 69%
    12:00 +29°C° 0 mm 5 mps 743 mmHg 66%
    13:00 +29°C° 0 mm 5 mps 742 mmHg 63%
    14:00 +30°C° 0 mm 5 mps 742 mmHg 61%
    15:00 +32°C° 0 mm 6 mps 742 mmHg 59%
    16:00 +32°C° 0 mm 6 mps 742 mmHg 62%
    17:00 +30°C° 0 mm 6 mps 742 mmHg 65%
    18:00 +30°C° 0 mm 6 mps 742 mmHg 68%
    19:00 +29°C° 0 mm 6 mps 741 mmHg 70%
    20:00 +28°C° 0 mm 7 mps 741 mmHg 73%
    21:00 +27°C° 0 mm 7 mps 741 mmHg 75%
    22:00 +27°C° 0.1 mm 6 mps 741 mmHg 78%
    23:00 +26°C° 0.1 mm 6 mps 741 mmHg 80%

    Tomorrow, 3 June, Wednesday

    Time Temperature Precipitation Wind Pressure Humidity
    00:00 +26°C° 0.1 mm 6 mps 741 mmHg 83%
    01:00 +25°C° 0.3 mm 5 mps 741 mmHg 84%
    02:00 +25°C° 0.3 mm 4 mps 741 mmHg 86%
    03:00 +23°C° 0.3 mm 4 mps 740 mmHg 87%
    04:00 +23°C° 0.3 mm 4 mps 740 mmHg 87%
    05:00 +23°C° 0.3 mm 4 mps 741 mmHg 88%
    06:00 +23°C° 0.3 mm 5 mps 741 mmHg 88%
    07:00 +25°C° 0.2 mm 5 mps 740 mmHg 83%
    08:00 +26°C° 0.2 mm 5 mps 740 mmHg 79%
    09:00 +27°C° 0.2 mm 5 mps 740 mmHg 74%
    10:00 +27°C° 0.2 mm 5 mps 740 mmHg 68%
    11:00 +28°C° 0.2 mm 4 mps 740 mmHg 63%
    12:00 +28°C° 0.2 mm 3 mps 740 mmHg 57%
    13:00 +28°C° 0 mm 3 mps 740 mmHg 56%
    14:00 +28°C° 0 mm 3 mps 740 mmHg 54%
    15:00 +28°C° 0 mm 3 mps 740 mmHg 52%
    16:00 +28°C° 0 mm 3 mps 740 mmHg 53%
    17:00 +27°C° 0 mm 2 mps 740 mmHg 54%
    18:00 +26°C° 0 mm 2 mps 740 mmHg 56%
    19:00 +25°C° 0 mm 2 mps 740 mmHg 57%
    20:00 +24°C° 0 mm 1 mps 740 mmHg 59%
    21:00 +23°C° 0 mm 1 mps 740 mmHg 61%
    22:00 +23°C° 0 mm 1 mps 740 mmHg 61%
    23:00 +21°C° 0 mm 0 mps 740 mmHg 62%

    Day after tomorrow, 4 June, Thursday

    Time Temperature Precipitation Wind Pressure Humidity
    00:00 +20°C° 0 mm 0 mps 740 mmHg 63%
    01:00 +20°C° 0 mm 0 mps 740 mmHg 65%
    02:00 +20°C° 0 mm 0 mps 740 mmHg 66%
    03:00 +19°C° 0 mm 0 mps 740 mmHg 67%
    04:00 +20°C° 0 mm 0 mps 740 mmHg 66%
    05:00 +20°C° 0 mm 0 mps 740 mmHg 65%
    06:00 +20°C° 0 mm 0 mps 740 mmHg 64%
    07:00 +22°C° 0 mm 0 mps 740 mmHg 58%
    08:00 +24°C° 0 mm 0 mps 741 mmHg 52%
    09:00 +25°C° 0 mm 0 mps 741 mmHg 46%
    10:00 +28°C° 0 mm 1 mps 741 mmHg 42%
    11:00 +29°C° 0 mm 1 mps 741 mmHg 39%
    12:00 +30°C° 0 mm 2 mps 740 mmHg 35%
    13:00 +30°C° 0 mm 2 mps 740 mmHg 36%
    14:00 +30°C° 0 mm 3 mps 740 mmHg 37%
    15:00 +30°C° 0 mm 3 mps 740 mmHg 38%
    16:00 +29°C° 0 mm 3 mps 740 mmHg 39%
    17:00 +28°C° 0 mm 3 mps 740 mmHg 41%
    18:00 +27°C° 0 mm 3 mps 740 mmHg 43%
    19:00 +26°C° 0 mm 3 mps 740 mmHg 43%
    20:00 +26°C° 0 mm 3 mps 740 mmHg 44%
    21:00 +25°C° 0 mm 3 mps 741 mmHg 44%
    22:00 +25°C° 0 mm 3 mps 741 mmHg 44%
    23:00 +24°C° 0 mm 2 mps 741 mmHg 44%

    5 June, Friday

    Time Temperature Precipitation Wind Pressure Humidity
    00:00 +24°C° 0 mm 2 mps 740 mmHg 44%
    01:00 +24°C° 0 mm 2 mps 740 mmHg 46%
    02:00 +23°C° 0 mm 2 mps 740 mmHg 47%
    03:00 +23°C° 0 mm 2 mps 741 mmHg 49%
    04:00 +23°C° 0 mm 2 mps 741 mmHg 51%
    05:00 +23°C° 0 mm 1 mps 741 mmHg 53%
    06:00 +23°C° 0 mm 1 mps 741 mmHg 56%
    07:00 +25°C° 0 mm 1 mps 741 mmHg 53%
    08:00 +25°C° 0 mm 0 mps 741 mmHg 50%
    09:00 +26°C° 0 mm 0 mps 742 mmHg 47%
    10:00 +29°C° 0 mm 1 mps 741 mmHg 45%
    11:00 +30°C° 0 mm 2 mps 741 mmHg 43%
    12:00 +31°C° 0 mm 2 mps 741 mmHg 41%
    13:00 +31°C° 0 mm 2 mps 741 mmHg 42%
    14:00 +31°C° 0 mm 2 mps 741 mmHg 43%
    15:00 +31°C° 0 mm 2 mps 740 mmHg 44%
    16:00 +31°C° 0.1 mm 2 mps 741 mmHg 47%
    17:00 +30°C° 0.1 mm 2 mps 741 mmHg 51%
    18:00 +29°C° 0.1 mm 3 mps 741 mmHg 55%
    19:00 +28°C° 0 mm 3 mps 741 mmHg 58%
    20:00 +27°C° 0 mm 4 mps 741 mmHg 62%
    21:00 +26°C° 0 mm 5 mps 742 mmHg 66%
    22:00 +25°C° 0 mm 5 mps 742 mmHg 62%
    23:00 +23°C° 0 mm 5 mps 742 mmHg 58%

    6 June, Saturday

    Time Temperature Precipitation Wind Pressure Humidity
    00:00 +21°C° 0 mm 5 mps 742 mmHg 54%
    01:00 +21°C° 0 mm 5 mps 742 mmHg 58%
    02:00 +20°C° 0 mm 5 mps 743 mmHg 61%
    03:00 +19°C° 0 mm 5 mps 743 mmHg 65%
    04:00 +19°C° 0 mm 5 mps 744 mmHg 64%
    05:00 +19°C° 0 mm 5 mps 744 mmHg 62%
    06:00 +17°C° 0 mm 5 mps 745 mmHg 60%
    07:00 +19°C° 0 mm 5 mps 745 mmHg 57%
    08:00 +20°C° 0 mm 5 mps 745 mmHg 53%
    09:00 +21°C° 0 mm 5 mps 745 mmHg 50%
    10:00 +21°C° 0 mm 5 mps 745 mmHg 49%
    11:00 +21°C° 0 mm 5 mps 745 mmHg 49%
    12:00 +21°C° 0 mm 6 mps 745 mmHg 49%
    13:00 +21°C° 0 mm 6 mps 745 mmHg 49%
    14:00 +21°C° 0 mm 6 mps 745 mmHg 50%
    15:00 +20°C° 0 mm 7 mps 745 mmHg 50%
    16:00 +20°C° 0 mm 6 mps 745 mmHg 49%
    17:00 +19°C° 0 mm 6 mps 746 mmHg 49%
    18:00 +17°C° 0 mm 6 mps 746 mmHg 48%
    19:00 +17°C° 0 mm 6 mps 746 mmHg 48%
    20:00 +16°C° 0 mm 6 mps 746 mmHg 48%
    21:00 +15°C° 0 mm 6 mps 746 mmHg 48%
    22:00 +15°C° 0 mm 6 mps 746 mmHg 53%
    23:00 +15°C° 0 mm 6 mps 746 mmHg 59%

    7 June, Sunday

    Time Temperature Precipitation Wind Pressure Humidity
    00:00 +14°C° 0 mm 5 mps 746 mmHg 65%
    01:00 +14°C° 0 mm 5 mps 746 mmHg 67%
    02:00 +14°C° 0 mm 4 mps 746 mmHg 70%
    03:00 +14°C° 0 mm 4 mps 746 mmHg 72%
    04:00 +16°C° 0 mm 3 mps 747 mmHg 73%
    05:00 +16°C° 0 mm 3 mps 747 mmHg 74%
    06:00 +16°C° 0 mm 2 mps 747 mmHg 75%
    07:00 +17°C° 0 mm 3 mps 747 mmHg 70%
    08:00 +18°C° 0 mm 3 mps 747 mmHg 65%
    09:00 +19°C° 0 mm 4 mps 747 mmHg 60%
    10:00 +19°C° 0 mm 3 mps 747 mmHg 59%
    11:00 +19°C° 0 mm 3 mps 746 mmHg 58%
    12:00 +19°C° 0 mm 3 mps 746 mmHg 57%
    13:00 +19°C° 0 mm 4 mps 746 mmHg 57%
    14:00 +19°C° 0 mm 4 mps 746 mmHg 58%
    15:00 +19°C° 0 mm 4 mps 746 mmHg 58%
    16:00 +19°C° 0 mm 4 mps 746 mmHg 58%
    17:00 +20°C° 0 mm 4 mps 745 mmHg 57%
    18:00 +20°C° 0 mm 4 mps 745 mmHg 57%
    19:00 +19°C° 0 mm 4 mps 745 mmHg 61%
    20:00 +18°C° 0 mm 4 mps 746 mmHg 64%
    21:00 +18°C° 0 mm 4 mps 746 mmHg 68%
    22:00 +18°C° 0 mm 4 mps 746 mmHg 70%
    23:00 +18°C° 0 mm 4 mps 746 mmHg 71%
    Show more